Probability
0 0 0 0 0 0 0 0 0 0 0 0 0 0 0 0 0 0 0 0 0 0 0 0 0 0 0 0 0 0 0 0 0 0 0 0 0 0 0 0 0 0 0 0 0 0 0 0 0
0 0 0 0 0 0 0 0 0 0 0 0 0 0 0 0 0 0 0 0 0 0 0 0 0 0 0 0 0 0 0 0 0 0 0 0 0 0 0 0 0 0 0 0 0 0 0 0 0
0 0 0 0 0 0 0 0 0 0 0 0 0 0 0 0 0 0 0 0 0 0 0 0 0 0 0 0 0 0 0 0 0 0 0 0 0 0 0 0 0 0 0 0 0 0 0 0 0
0 0 0 0 0 0 0 0 0 0 0 0 0 0 0 0 0 0 0 0 0 0 0 0 0 0 0 0 0 0 0 0 0 0 0 0 0 0 0 0 0 0 0 0 0 0 0 0 0
0 0 0 0 0 0 0 0 0 0 0 0 0 0 0 0 0 0 0 0 0 0 0 0 0 0 0 0 0 0 0 0 0 0 0 0 0 0 0 0 0 0 0 0 0 0 0 0 0
0 0 0 0 0 0 0 0 0 0 0 0 0 0 0 0 0 0 0 0 0 0 0 0 0 0 0 0 0 0 0 0 0 0 0 0 0 0 0 0 0 0 0 0 0 0 0 0 0
0 0 0 0 0 0 0 0 0 0 0 0 0 0 0 0 0 0 0 0 0 0 0 0 0 0 0 0 0 0 0 0 0 0 0 0 0 0 0 0 0 0 0 0 0 0 0 0 0
0 0 0 0 0 0 0 0 0 0 0 0 0 0 0 0 0 0 0 0 0 0 0 0 0 0 0 0 0 0 0 0 0 0 0 0 0 0 0 0 0 0 0 0 0 0 0 0 0
0 0 0 0 0 0 0 0 0 0 0 0 0 0 0 0 0 0 0 0 0 0 0 0 0 0 0 0 0 0 0 0 0 0 0 0 0 0 0 0 0 0 0 0 0 0 0 0 0
0 0 0 0 0 0 0 0 0 0 0 0 0 0 0 0 0 0 0 0 0 0 0 0 0 0 0 0 0 0 0 0 0 0 0 0 0 0 0 0 0 0 0 0 0 0 0 0 0
0 0 0 0 0 0 0 0 0 0 0 0 0 0 0 0 0 0 0 0 0 0 0 0 0 0 0 0 0 0 0 0 0 0 0 0 0 0 0 0 0 0 0 0 0 0 0 0 0
0 0 0 0 0 0 0 0 0 0 0 0 0 0 0 0 0 0 0 0 0 0 0 0 0 0 0 0 0 0 0 0 0 0 0 0 0 0 0 0 0 0 0 0 0 0 0 0 0
0 0 0 0 0 0 0 0 0 0 0 0 0 0 0 0 0 0 0 0 0 0 0 0 0 0 0 0 0 0 0 0 0 0 0 0 0 0 0 0 0 0 0 0 0 0 0 0 0
0 0 0 0 0 0 0 0 0 0 0 0 0 0 0 0 0 0 0 0 0 0 0 0 0 0 0 0 0 0 0 0 0 0 0 0 0 0 0 0 0 0 0 0 0 0 0 0 0
0 0 0 0 0 0 0 0 0 0 0 0 0 0 0 0 0 0 0 0 0 0 0 0 0 0 0 0 0 0 0 0 0 0 0 0 0 0 0 0 0 0 0 0 0 0 0 0 0
0 0 0 0 0 0 0 0 0 0 0 0 0 0 0 0 0 0 0 0 0 0 0 0 0 0 0 0 0 0 0 0 0 0 0 0 0 0 0 0 0 0 0 0 0 0 0 0 0
0 0 0 0 0 0 0 0 0 0 0 0 0 0 0 0 0 0 0 0 0 0 0 0 0 0 0 0 0 0 0 0 0 0 0 0 0 0 0 0 0 0 0 0 0 0 0 0 0
0 0 0 0 0 0 0 0 0 0 0 0 0 0 0 0 0 0 0 0 0 0 0 0 0 0 0 0 0 0 0 0 0 0 0 0 0 0 0 0 0 0 0 0 0 0 0 0 0
0 0 0 0 0 0 0 0 0 0 0 0 0 0 0 0 0 0 0 0 0 0 0 0 0 0 0 0 0 0 0 0 0 0 0 0 0 0 0 0 0 0 0 0 0 0 0 0 0
0 0 0 0 0 0 0 0 0 0 0 0 0 0 0 0 0 0 0 0 0 0 0 0 0 0 0 0 0 0 0 0 0 0 0 0 0 0 0 0 0 0 0 0 0 0 0 0 0
0 0 0 0 0 0 0 0 0 0 0 0 0 0 0 0 0 0 0 0 0 0 0 0 0 0 0 0 0 0 0 0 0 0 0 0 0 0 0 0 0 0 0 0 0 0 0 0 0
0 0 0 0 0 0 0 0 0 0 0 0 0 0 0 0 0 0 0 0 0 0 0 0 0 0 0 0 0 0 0 0 0 0 0 0 0 0 0 0 0 0 0 0 0 0 0 0 0
0 0 0 0 0 0 0 0 0 0 0 0 0 0 0 0 0 0 0 0 0 0 0 0 0 0 0 0 0 0 0 0 0 0 0 0 0 0 0 0 0 0 0 0 0 0 0 0 0
0 0 0 0 0 0 0 0 0 0 0 0 0 0 0 0 0 0 0 0 0 0 0 0 0 0 0 0 0 0 0 0 0 0 0 0 0 0 0 0 0 0 0 0 0 0 0 0 0
0 0 0 0 0 0 0 0 0 0 0 0 0 0 0 0 0 0 0 0 0 0 0 0 0 0 0 0 0 0 0 0 0 0 0 0 0 0 0 0 0 0 0 0 0 0 0 0 0
0 0 0 0 0 0 0 0 0 0 0 0 0 0 0 0 0 0 0 0 0 0 0 0 0 0 0 0 0 0 0 0 0 0 0 0 0 0 0 0 0 0 0 0 0 0 0 0 0
0 0 0 0 0 0 0 0 0 0 0 0 0 0 0 0 0 0 0 0 0 0 0 0 0 0 0 0 0 0 0 0 0 0 0 0 0 0 0 0 0 0 0 0 0 0 0 0 0
0 0 0 0 0 0 0 0 0 0 0 0 0 0 0 0 0 0 0 0 0 0 0 0 0 0 0 0 0 0 0 0 0 0 0 0 0 0 0 0 0 0 0 0 0 0 0 0 0
0 0 0 0 0 0 0 0 0 0 0 0 0 0 0 0 0 0 0 0 0 0 0 0 0 0 0 0 0 0 0 0 0 0 0 0 0 0 0 0 0 0 0 0 0 0 0 0 0
0 0 0 0 0 0 0 0 0 0 0 0 0 0 0 0 0 0 0 0 0 0 0 0 0 0 0 0 0 0 0 0 0 0 0 0 0 0 0 0 0 0 0 0 0 0 0 0 0
Wind_Speed
5 4 3 3 4 2 4 4 3 4 4 5 5 5 6 7 6 7 6 6 7 7 8 9 10 10 10 10 10 10 10 10 10 9 9 9 9 8 8 8 7 7 7 7 7 7 7 7 7
4 3 3 4 3 3 5 4 5 6 7 6 5 6 7 8 8 8 7 7 7 8 8 10 11 11 10 10 10 10 10 10 10 9 9 9 9 8 8 8 8 7 7 7 7 6 6 6 6
2 3 3 2 1 2 5 5 6 8 6 4 5 6 6 7 6 6 8 9 9 8 9 11 10 11 10 10 10 10 10 10 10 9 9 9 9 9 8 8 7 7 7 7 7 6 6 6 6
2 3 3 2 4 4 4 6 6 8 5 5 7 8 7 7 6 9 10 10 10 9 9 11 10 10 10 10 10 10 10 9 9 9 8 8 8 8 8 7 7 7 7 6 6 6 5 5 6
3 3 3 3 4 4 4 4 4 5 4 6 7 10 9 8 12 12 10 10 10 9 9 11 10 10 10 10 10 10 10 10 9 9 9 8 7 7 7 6 6 6 6 5 5 5 5 5 5
2 3 3 4 5 4 4 3 4 6 8 8 9 10 9 9 10 10 10 9 9 9 9 10 11 10 10 10 10 10 10 9 9 9 8 7 7 6 6 6 5 5 5 4 5 4 4 4 4
2 2 2 4 5 5 4 3 4 6 8 7 8 9 10 10 9 10 10 9 8 8 8 8 9 10 9 9 9 9 9 8 8 8 8 7 7 6 6 5 5 5 4 4 4 4 4 4 4
2 2 3 4 4 4 4 4 4 5 8 8 6 8 11 12 10 10 9 9 8 7 7 7 7 7 7 8 9 8 8 8 7 7 7 5 3 3 3 3 6 5 5 6 5 5 4 3 3
3 4 4 3 3 4 5 5 5 5 9 6 5 9 13 15 12 11 9 8 8 7 6 6 6 6 5 6 6 5 5 5 1 4 4 2 2 4 3 9 8 7 6 6 6 5 3 2 2
3 4 3 3 2 4 5 5 6 7 9 10 11 13 15 14 12 11 9 9 8 7 6 5 5 5 4 4 3 3 3 4 3 4 4 3 4 4 4 6 5 5 4 2 3 3 3 5 1
3 1 3 3 3 3 5 5 4 7 9 11 14 16 15 13 11 10 8 8 7 6 5 4 4 4 3 3 2 3 2 3 3 5 4 3 3 2 3 2 2 2 2 3 1 3 1 1 1
2 2 2 3 3 3 4 5 6 5 8 10 14 16 15 13 11 10 8 7 6 5 5 4 4 4 3 3 3 2 3 3 4 4 5 4 3 3 4 3 4 3 3 3 3 2 2 2 1
3 3 2 3 3 4 5 6 6 7 8 11 14 15 14 12 11 8 7 6 6 5 5 4 2 3 4 3 2 3 3 3 4 3 4 5 4 4 3 3 3 4 4 3 3 3 3 2 2
2 3 3 3 4 4 6 6 6 7 10 13 14 14 13 11 10 8 7 6 6 6 6 5 4 3 3 3 3 4 4 3 4 4 5 5 4 4 4 4 4 4 4 4 3 3 2 1 2
4 5 5 3 3 5 7 6 6 8 11 12 13 12 11 10 9 7 7 6 6 7 6 6 4 4 4 5 5 4 3 4 4 4 5 5 5 5 5 5 4 4 4 4 3 3 2 1 1
6 6 6 4 4 5 6 7 8 8 11 11 11 11 10 9 8 7 6 5 6 6 7 6 4 4 5 4 4 3 4 4 4 4 4 6 6 6 5 4 5 5 4 3 3 3 2 2 1
6 8 8 7 4 5 5 7 8 8 10 11 11 11 10 10 8 7 6 6 5 6 6 7 6 5 5 5 4 3 4 4 4 4 4 5 6 6 6 5 5 5 4 4 4 4 3 3 2
8 8 8 7 5 6 6 7 8 8 9 10 10 10 10 10 9 8 7 6 6 6 6 6 6 6 6 4 3 3 3 3 3 4 4 5 5 6 5 4 6 5 4 4 4 4 4 3 2
4 6 7 5 4 6 7 8 9 9 9 10 11 10 10 9 8 7 7 7 7 7 7 7 7 7 5 4 3 2 3 2 3 3 5 4 5 5 5 4 6 5 5 5 5 4 4 4 3
5 7 7 5 4 5 7 7 7 8 10 10 11 11 11 10 9 9 9 9 8 8 8 8 7 7 5 3 2 2 2 2 3 2 2 3 5 5 4 5 4 5 4 6 6 4 3 3 3
5 5 5 6 5 4 6 7 8 8 8 8 8 9 10 10 11 11 10 9 8 8 8 6 7 7 6 5 3 2 3 2 2 2 2 3 4 4 5 6 5 5 5 5 5 5 5 4 4
5 3 4 6 6 5 7 6 9 10 10 10 10 10 10 10 10 10 10 10 9 9 8 7 7 7 6 5 4 3 1 1 2 2 2 3 3 4 4 5 5 5 5 5 5 5 4 4 4
3 4 4 5 4 5 7 6 8 11 13 13 12 11 11 11 11 10 10 10 9 8 7 7 7 6 6 4 4 3 2 2 2 2 3 3 4 4 4 4 4 4 4 5 5 5 5 4 4
7 7 4 2 4 7 8 7 7 11 15 15 13 12 12 11 10 10 9 9 9 8 8 7 7 7 6 5 5 3 3 3 3 2 3 2 3 3 5 4 3 4 4 5 4 4 5 5 5
8 7 5 6 6 5 5 7 5 8 11 13 15 14 12 11 10 11 11 11 10 10 9 8 9 8 7 6 5 4 4 3 3 3 3 2 3 3 4 3 4 4 4 4 4 4 4 5 5
10 8 4 4 6 5 6 7 3 5 6 9 12 12 12 12 11 11 11 11 10 11 10 9 9 9 8 7 5 4 4 2 3 3 2 3 3 3 4 3 4 4 4 3 3 3 4 4 4
7 6 2 3 3 4 7 5 4 6 8 11 12 13 13 13 12 11 11 11 11 11 10 10 10 9 8 7 6 5 4 3 4 3 3 3 3 3 3 3 3 4 4 4 3 3 4 4 4
3 4 4 4 4 5 6 7 6 12 13 13 14 15 14 13 12 12 11 11 10 10 10 9 9 9 9 7 6 4 4 4 3 3 3 3 3 3 3 3 3 4 4 4 4 4 4 4 4
7 7 5 4 4 3 4 4 3 10 14 16 16 16 15 14 13 12 11 11 10 10 10 10 9 9 8 7 7 6 5 4 4 3 3 2 2 3 3 3 3 4 4 4 4 4 4 4 4
8 8 8 5 4 3 3 2 4 4 10 13 14 14 14 14 13 12 12 12 11 11 10 10 10 9 8 7 7 6 6 5 4 4 3 2 2 2 2 3 3 3 4 4 4 3 3 4 4
Wind_Direction
292 302 281 250 232 166 88 87 97 105 86 71 64 65 68 45 36 77 93 102 102 101 98 102 90 91 91 92 92 92 91 90 89 87 87 85 83 79 76 74 73 71 68 64 59 55 48 45 45
307 302 254 251 249 142 102 95 93 80 100 110 86 76 78 72 68 91 107 108 105 97 92 85 90 88 87 87 89 89 87 86 85 83 80 79 79 75 70 66 65 64 63 59 53 50 44 38 37
286 272 275 252 218 90 105 106 104 107 113 115 94 70 65 82 90 94 108 116 106 96 92 91 90 89 88 88 87 85 85 86 83 79 76 75 73 70 67 63 60 59 58 54 48 43 38 34 30
269 240 236 224 114 79 100 116 124 128 109 92 105 88 77 70 88 106 118 116 107 101 96 94 92 92 91 89 87 86 84 82 79 76 74 72 70 67 61 59 57 55 52 49 44 37 29 25 22
253 256 210 161 119 106 102 118 136 128 107 103 103 99 91 86 103 113 118 114 108 102 98 97 93 92 89 87 86 82 79 77 74 70 67 65 62 60 55 53 53 49 43 36 32 27 22 18 14
243 246 210 164 130 123 120 128 139 118 114 112 109 106 100 114 116 117 118 114 108 104 101 104 98 86 82 82 80 76 74 72 70 65 61 57 55 53 51 48 47 42 32 26 20 13 9 8 9
271 241 199 151 142 138 120 135 147 133 124 116 118 112 121 129 123 125 121 118 112 109 105 102 109 108 100 82 73 72 68 63 59 57 55 51 50 47 43 38 33 27 22 19 13 9 13 10 7
295 240 180 165 157 125 119 132 116 121 113 117 128 127 138 140 135 130 127 126 122 117 111 104 99 96 103 104 85 67 60 54 55 58 53 48 85 83 54 41 42 23 18 14 11 11 16 15 17
254 226 190 156 151 124 135 138 118 117 125 121 107 113 129 136 142 138 136 137 132 127 122 114 105 98 91 85 92 91 90 67 83 106 84 311 30 53 75 46 38 31 25 21 16 15 10 313 169
231 223 151 100 96 130 143 138 137 147 137 125 117 115 128 142 150 148 146 144 141 138 132 123 117 111 98 79 83 67 63 61 34 37 36 27 37 30 21 93 59 39 17 24 33 333 249 256 200
219 209 118 126 118 131 141 135 148 156 146 144 141 139 143 150 152 148 145 137 130 130 130 128 122 112 97 90 59 48 46 55 54 42 43 30 31 31 18 17 72 33 344 358 17 270 334 325 13
180 131 128 119 126 142 141 130 133 139 121 132 139 143 148 155 154 151 145 139 140 135 129 128 128 119 93 73 69 57 56 48 46 43 32 32 32 17 29 18 14 4 10 359 338 332 2 341 334
182 139 124 115 135 141 135 127 118 120 124 133 138 148 153 156 154 151 148 145 143 137 138 127 121 100 96 82 68 78 67 48 64 42 33 33 26 28 26 29 19 11 5 358 343 345 17 349 12
147 146 131 128 140 147 137 129 134 125 139 142 149 155 159 159 159 158 162 158 149 145 133 127 130 112 109 111 100 78 74 75 56 53 41 34 38 30 15 26 21 14 5 358 339 6 358 0 22
161 157 149 152 156 145 148 145 139 136 150 152 156 156 160 162 163 168 163 161 150 143 136 129 127 122 108 93 85 82 76 65 59 53 40 45 38 28 24 17 21 14 7 4 1 11 352 25 42
181 187 173 150 163 164 189 154 138 152 163 159 161 159 164 168 174 173 169 165 150 148 141 135 139 130 111 105 103 90 78 69 62 55 43 42 41 36 31 24 23 15 11 12 18 14 18 40 37
191 190 173 150 166 174 191 154 150 165 172 167 169 167 171 172 179 178 175 172 158 157 156 148 140 134 121 117 116 98 88 75 64 59 46 36 36 30 39 25 15 18 18 16 17 28 19 37 42
183 181 177 164 156 181 181 159 159 175 184 178 174 176 179 179 178 172 170 166 157 162 163 146 140 141 130 133 129 116 99 85 70 63 56 40 32 30 31 29 27 21 27 22 28 34 33 34 36
187 183 174 153 152 181 178 171 173 178 192 191 186 183 185 182 174 170 171 169 165 165 166 156 158 151 149 149 149 133 114 103 88 66 52 46 38 32 37 22 31 20 30 24 26 24 46 43 29
187 178 164 147 156 187 177 178 180 187 198 196 191 187 187 181 176 174 175 174 171 169 174 167 160 158 159 146 130 123 107 93 78 82 81 45 37 30 28 32 33 35 31 33 29 30 21 43 29
190 190 171 161 155 177 179 187 188 186 196 191 198 197 194 188 183 175 174 172 172 174 176 168 159 158 159 154 142 144 133 148 142 113 75 46 35 33 28 30 28 29 31 37 28 27 28 34 47
186 174 173 173 185 181 208 197 191 185 189 193 192 193 194 189 188 177 173 175 179 174 172 170 163 159 153 161 171 166 154 115 88 75 79 81 54 46 34 34 28 32 37 38 37 39 29 25 40
159 148 168 188 198 198 207 212 186 184 196 194 190 189 189 187 186 181 177 176 174 166 166 165 157 156 157 166 158 179 145 115 113 111 94 80 74 57 49 35 32 35 40 41 39 36 30 32 29
148 144 139 183 209 213 202 217 195 190 201 192 186 187 185 181 179 177 171 168 165 162 159 159 158 155 156 166 169 164 134 139 131 122 99 96 94 78 66 44 39 39 41 40 37 41 43 35 33
182 173 176 187 202 201 182 227 215 178 195 192 185 183 180 176 175 173 170 170 166 164 163 163 161 157 159 164 162 151 139 130 123 118 103 82 86 79 62 46 44 41 38 39 37 48 42 43 35
193 206 219 200 187 167 185 224 175 141 181 188 184 178 174 174 176 173 170 168 167 165 164 166 163 158 158 160 152 141 131 128 104 99 92 83 70 65 58 49 45 45 38 40 39 34 42 37 41
184 205 268 288 190 191 189 204 185 166 179 181 179 177 176 174 173 172 167 167 166 164 165 166 163 159 159 158 150 145 139 124 116 120 105 89 81 72 70 66 62 55 42 35 34 38 37 34 29
231 179 196 227 205 200 191 207 195 176 183 182 182 181 176 173 171 168 165 165 163 160 161 164 164 159 158 158 154 146 141 131 121 120 106 97 90 80 77 77 77 73 60 53 41 43 32 36 44
178 193 211 227 259 255 191 180 179 186 183 184 185 181 176 174 171 167 165 162 158 157 161 163 162 159 158 159 155 156 150 147 144 126 114 117 112 116 104 71 58 59 56 58 57 42 41 32 42
213 213 214 228 210 259 279 115 96 194 184 184 181 177 174 171 168 165 162 160 160 161 163 164 161 161 161 160 161 162 151 160 154 138 139 142 110 95 93 79 65 58 47 41 42 38 37 34 32